Regional Weather Roundup
Issued by NWS

Home | Current Version | Previous Version | Graphics & Text | Print | Product List | Glossary On
Versions: 1 2 3 4 5 6 7 8 9 10 11 12 13 14 15 16 17 18 19 20 21 22 23 24 25 26 27 28 29 30 31 32 33 34 35 36 37 38 39 40 41 42 43 44 45 46 47 48 49 50
000
ASUS43 KLMK 172110
RWRKY
KENTUCKY REGIONAL WEATHER ROUNDUP
NATIONAL WEATHER SERVICE LOUISVILLE KY
500 PM EDT WED SEP 17 2014

NOTE "FAIR" INDICATES FEW OR NO CLOUDS BELOW 12,000 FEET
WITH NO SIGNIFICANT WEATHER AND/OR OBSTRUCTIONS TO VISIBILITY.

KYZ001>023-026-027-061>063-070>075-172200-
WESTERN AND SOUTH CENTRAL KENTUCKY

CITY           SKY/WX    TMP DP  RH WIND       PRES   REMARKS
PADUCAH        CLOUDY    74  57  55 SE6       29.94F
HENDERSON      CLOUDY    72  52  49 E6        29.96F
OWENSBORO      PTSUNNY   71  51  49 E9        29.97F
HOPKINSVILLE   PTSUNNY   72  52  48 SE3       29.96F
BOWLING GREEN  MOSUNNY   72  51  47 W3        29.98F
GLASGOW        SUNNY     72  53  50 NW6       29.98F
$$

KYZ024-025-028>034-038-045-046-053-172200-
NORTH CENTRAL KENTUCKY

CITY           SKY/WX    TMP DP  RH WIND       PRES   REMARKS
LOUISVILLE/SDF PTSUNNY   70  51  51 NW6       29.98F
LOUISVILLE/LOU MOSUNNY   70  50  49 N7        29.99F
FORT KNOX      PTSUNNY   68  54  60 NW5       29.98F
$$

KYZ035>037-039>044-047>052-055>060-089>105-172200-
NORTHEAST KENTUCKY

CITY           SKY/WX    TMP DP  RH WIND       PRES   REMARKS
LEXINGTON      MOSUNNY   71  53  52 N8        30.00S
COVINGTON      PTSUNNY   65  48  54 W7        30.01S
FRANKFORT      MOSUNNY   69  51  52 NE5       29.98F
$$

KYZ054-064>069-076>088-106>120-172200-
SOUTHEAST KENTUCKY

CITY           SKY/WX    TMP DP  RH WIND       PRES   REMARKS
JACKSON        PTSUNNY   70  54  56 CALM      30.00R
LONDON         SUNNY     72  53  51 VRB7      29.99S
SOMERSET       NOT AVBL
MIDDLESBORO    PTSUNNY   73  58  58 N7        29.97S
MONTICELLO     CLEAR     73  53  49 VRB7      30.00F
$$



USA.gov is the U.S. government's official web portal to all federal, state and local government web resources and services.